SCP
0 0 0 0 0 0 0 0 0 0 0 0 0 0 0 0 0 0 0 0 0 0 0 0 0 0 0 0 0 0 0 0 0 0 0 0 0 0 0 0 0 0 0 0 0 0 0 0 0 0 0 -0 -0 -0
0 0 0 0 0 0 0 0 0 0 0 0 0 0 0 0 0 0 0 0 0 0 0 0 0 0 0 0 0 0 0 0 0 0 0 0 0 0 0 0 0 0 0 0 0 0 0 0 0 0 0 -0 -0 0
0 0 0 0 0 0 0 0 0 0 0 0 0 0 0 0 0 0 0 0 0 0 0 0 0 0 0 0 0 0 0 0 0 0 0 0 0 0 0 0 0 0 0 0 0 0 0 0 0 0 0 0 0 0
0 0 0 0 0 0 0 0 0 0 0 0 0 0 0 0 0 0 0 0 0 0 0 0 0 0 0 0 0 0 0 0 0 0 0 0 0 0 0 0 0 0 0 0 0 0 0 0 0 0 0 0 0 0
0 0 0 0 0 0 0 0 0 0 0 0 0 0 0 0 -0 0 0 0 0 0 0 0 0 0 0 0 0 0 0 0 0 0 0 0 0 0 0 0 0 0 0 0 0 0 0 0 0 0 0 0 0 0
0 0 0 0 0 0 0 0 0 0 0 0 0 0 0 0 0 0 0 0 0 0 0 0 0 0 0 0 0 0 0 0 0 0 0 0 0 0 0 0 0 0 0 0 0 0 0 0 0 0 0 0 0 0
0 0 0 0 0 0 0 0 0 0 0 0 0 0 0 -0 0 0 0 0 0 0 0 0 0 0 0 0 0 0 0 0 0 0 0 0 0 0 0 0 0 0 0 0 0 0 0 0 0 0 0 0 0 0
0 0 0 0 0 0 0 0 0 0 0 0 0 0 -0 0 0 0 0 0 0 0 0 0 0 0 0 0 0 0 0 0 0 0 0 0 0 0 0 0 0 0 0 0 0 0 0 0 0 0 0 0 0 0
0 0 0 0 0 0 0 0 0 0 0 0 0 0 0 0 0 0 0 0 0 0 0 0 0 0 0 0 0 0 0 0 0 0 0 0 0 0 0 0 0 0 0 0 0 0 0 0 0 0 0 0 0 0
0 0 0 0 0 0 0 0 0 0 0 0 0 0 0 0 0 0 0 0 0 0 0 0 0 0 0 0 0 0 0 0 0 0 0 0 0 0 0 0 0 0 0 0 0 0 0 0 0 0 0 0 0 0
0 0 0 0 0 0 0 0 0 0 0 0 0 0 0 0 0 0 0 0 0 0 0 0 0 0 0 0 0 0 0 0 0 0 0 0 0 0 0 0 0 0 0 0 0 0 0 0 0 0 0 0 0 0
0 0 0 0 0 0 0 0 0 0 0 0 0 0 0 0 0 0 0 0 0 0 0 0 0 0 0 0 0 0 0 0 0 0 0 0 0 0 0 0 0 0 0 0 0 0 0 0 0 0 0 0 0 -0
-0 0 0 0 0 0 0 0 0 0 0 0 0 0 0 0 0 0 0 0 0 0 0 0 0 0 0 0 0 0 0 0 0 0 0 0 0 0 0 0 0 0 0 0 0 0 0 0 0 0 0 0 -0 -0
0 0 0 0 0 0 0 0 0 0 0 0 0 0 0 0 0 0 0 0 0 0 0 0 0 0 0 0 0 0 0 0 0 0 0 0 0 0 0 0 0 0 0 0 0 0 0 0 0 0 -0 -0 -0 -0
0 0 0 0 0 0 0 0 0 0 0 0 0 0 0 0 0 0 0 0 0 0 0 0 0 0 0 0 0 0 0 0 0 0 0 0 0 0 0 0 0 0 0 0 0 0 0 0 -0 -0 -0 -0 0 -0
-0 0 0 0 0 0 0 0 0 0 0 0 0 0 0 0 0 0 0 0 0 0 0 0 0 0 0 0 0 0 0 0 0 0 0 0 0 0 0 0 0 0 0 0 0 0 0 -0 -0 -0 -0 0 0 0
0 0 0 0 0 0 0 0 0 0 0 0 0 0 0 0 0 0 0 0 0 0 0 0 0 0 0 0 0 0 0 0 0 0 0 0 0 0 0 0 0 0 0 0 0 0 -0 -0 -0 -0 -0 0 -0 -0
0 0 0 -0 0 0 0 0 0 0 0 0 0 0 0 0 0 0 0 0 0 0 0 0 0 0 0 0 0 0 0 0 0 0 0 0 0 0 0 0 0 0 0 0 -0 -0 -0 -0 -0 -0 0 0 0 -0
0 0 0 0 0 0 0 0 0 0 0 0 0 0 0 0 0 0 0 0 0 0 0 0 0 0 0 0 0 0 0 0 0 0 0 0 0 0 0 0 0 0 0 -0 -0 -0 -0 -0 0 0 0 0 0 -0
0 -0 -0 -0 0 0 0 0 0 0 0 0 0 0 0 0 0 0 0 0 0 0 0 0 0 0 0 0 0 0 0 0 0 0 0 0 0 0 0 0 0 -0 -0 -0 -0 0 0 0 0 0 0 0 -0 -0
0 0 -0 0 0 0 0 0 0 0 0 0 0 0 0 0 0 0 0 0 0 0 0 0 0 0 0 0 0 0 0 0 0 0 0 0 0 0 0 0 0 -0 -0 0 0 0 0 0 0 0 0 -0 -0 -0
0 0 0 0 0 0 0 0 0 0 0 0 0 0 0 0 0 0 0 0 0 0 0 0 0 0 0 0 0 0 0 0 0 0 0 0 0 0 0 0 0 0 0 0 0 0 0 0 0 0 0 0 0 0
0 0 0 0 0 0 0 0 0 0 0 0 0 0 0 0 0 0 0 0 0 0 0 0 0 0 0 0 0 0 0 0 0 0 0 0 0 0 0 0 0 0 0 0 0 0 0 0 0 0 0 0 0 0
0 0 0 0 0 0 0 0 0 0 0 0 0 0 0 0 0 0 0 0 0 0 0 0 0 0 0 0 0 0 0 0 0 0 0 0 0 0 0 0 0 0 0 0 0 0 0 0 0 0 0 0 0 0
-0 0 0 0 0 0 0 0 0 0 0 0 0 0 0 0 0 0 0 0 0 0 0 0 0 0 0 0 0 0 0 0 0 0 0 0 0 0 0 0 0 -0 0 0 0 0 0 0 0 0 0 0 0 0
0 0 0 0 0 0 0 0 0 0 0 0 0 0 0 0 0 0 0 0 0 0 0 0 0 0 -0 -0 -0 0 0 0 0 0 0 0 0 0 0 0 0 0 -0 -0 0 0 0 0 0 0 0 0 0 0
-0 0 0 0 0 0 0 0 0 0 0 0 0 0 0 0 0 0 0 0 0 -0 -0 0 0 0 0 -0 -0 0 0 0 0 0 0 0 0 0 0 0 0 -0 0 0 0 0 0 0 0 0 0 0 0 0
0 0 0 0 0 0 0 0 0 0 0 0 0 0 0 0 0 0 -0 0 0 -0 -0 -0 -0 -0 0 -0 0 -0 0 0 0 0 0 0 -0 -0 -0 -0 -0 -0 0 0 0 0 0 0 0 0 0 0 0 0
0 -0 0 0 0 0 0 0 0 0 0 0 0 0 0 -0 -0 -0 -0 -0 -0 0 0 0 0 0 -0 -0 -0 -0 -0 -0 0 0 0 0 0 0 0 0 0 0 0 0 0 0 0 0 0 0 0 0 0 0
-0 -0 0 0 -0 -0 -0 -0 -0 -0 -0 -0 -0 0 0 0 0 0 -0 0 0 0 0 0 0 0 -0 0 -0 0 0 0 0 0 0 0 0 0 0 0 0 0 0 0 0 0 0 0 0 0 0 0 0 0
0 0 -0 -0 -0 -0 -0 -0 -0 -0 -0 -0 0 -0 0 0 0 0 -0 -0 0 0 0 0 0 0 0 0 0 0 0 0 0 0 0 0 0 0 0 0 0 0 0 0 0 0 0 0 0 0 0 0 0 0
0 0 -0 -0 0 0 0 0 -0 -0 -0 -0 -0 -0 0 -0 -0 0 0 0 0 0 0 0 0 0 0 0 0 0 0 0 0 0 0 0 0 0 0 0 0 0 0 0 0 0 0 0 0 0 0 0 0 0
-0 -0 -0 -0 -0 -0 -0 0 -0 0 -0 -0 -0 -0 -0 -0 -0 0 0 0 0 0 0 0 0 0 0 0 0 0 0 0 0 0 0 0 0 0 0 0 0 0 0 0 0 0 0 0 0 0 0 0 0 0
Wind_Speed_500mb
54 53 52 52 54 55 51 53 52 50 45 65 56 55 55 56 55 52 61 54 52 35 54 37 34 45 21 21 8 5 7 7 5 4 7 8 8 8 1 2 8 7 5 6 3 1 18 12 21 3 12 39 38 17
64 58 60 61 55 57 56 58 53 49 50 57 56 56 65 58 60 57 62 58 53 54 27 23 40 61 61 59 50 27 21 13 18 4 2 4 4 3 7 7 8 5 13 10 16 12 17 62 55 63 39 40 36 32
66 66 63 65 63 60 62 62 60 59 53 60 58 56 62 63 58 59 66 59 49 52 56 57 60 79 75 67 59 38 35 39 43 44 11 7 12 6 9 12 15 13 36 9 3 23 33 44 53 64 66 47 42 46
66 69 70 69 66 63 64 64 56 51 56 57 61 60 56 58 58 57 64 65 61 28 10 24 33 52 37 40 58 77 85 60 48 42 21 9 9 18 10 14 16 17 9 14 20 32 44 62 57 56 46 44 52 54
69 70 73 72 69 69 67 66 62 58 54 51 55 52 55 56 55 57 64 71 65 56 6 10 27 34 40 38 49 54 63 65 47 22 9 15 12 11 7 8 21 25 34 23 29 55 39 41 62 50 40 44 50 50
70 72 71 70 70 68 68 66 64 63 58 53 51 55 55 55 52 51 38 70 71 66 21 7 22 43 49 77 61 67 64 64 43 23 16 23 32 20 8 9 27 46 58 72 52 73 62 67 52 47 41 41 44 52
68 71 69 69 67 67 64 62 60 57 56 51 47 49 52 53 51 62 17 12 27 63 27 6 7 28 44 51 57 60 55 38 37 28 22 30 24 20 8 26 37 47 59 54 51 49 42 45 26 36 42 53 62 72
62 60 61 64 65 64 62 62 60 55 51 49 48 48 47 48 47 60 73 52 29 55 21 6 8 3 23 16 13 23 21 27 27 27 22 14 13 16 16 19 44 48 46 35 32 27 28 39 43 43 48 57 68 77
56 57 59 61 64 58 57 56 56 52 51 45 43 41 41 50 52 46 48 51 58 37 11 11 10 7 19 17 16 13 19 7 16 11 12 14 10 13 15 24 22 17 10 20 24 29 32 36 46 53 58 63 71 83
54 58 55 58 60 59 54 52 52 51 49 44 39 28 16 35 38 33 25 26 51 37 26 6 19 5 24 23 10 9 15 7 6 10 10 10 16 13 9 11 11 12 17 22 27 26 40 49 53 61 65 67 65 81
49 47 45 43 41 43 47 50 53 47 41 44 27 21 16 15 34 23 17 15 13 6 12 18 34 7 25 6 11 18 6 7 8 9 11 3 6 8 15 13 11 13 18 22 26 32 38 47 58 68 77 78 81 83
49 51 51 53 48 50 52 53 52 54 57 39 22 24 24 24 16 12 9 7 10 13 9 9 19 31 15 20 8 14 7 8 8 7 7 5 8 9 7 6 9 14 20 25 30 39 43 49 54 63 72 77 77 77
48 48 47 45 47 48 48 52 55 56 52 44 30 22 18 15 12 14 16 5 3 4 17 16 6 13 14 19 7 7 11 10 10 5 8 8 10 7 2 8 13 21 27 34 40 44 50 56 58 59 68 68 67 67
47 47 43 43 42 41 38 44 50 52 46 25 13 14 12 8 9 8 10 11 13 16 33 25 8 7 11 7 6 7 4 7 4 7 12 2 5 5 10 18 27 32 37 43 48 52 57 59 62 58 55 55 55 57
40 42 45 45 41 42 41 39 39 50 22 17 14 12 12 11 5 8 18 19 13 22 27 9 3 12 6 7 6 4 7 7 10 11 4 8 7 15 20 24 30 37 44 50 52 54 56 55 55 57 48 45 44 47
35 36 40 36 37 40 44 43 46 51 17 12 9 7 6 8 4 13 14 13 23 26 16 6 4 4 8 5 8 9 7 11 8 5 6 7 13 18 24 28 33 39 44 48 48 47 47 45 44 45 42 39 37 34
30 39 37 35 35 33 33 39 35 23 14 14 5 8 7 10 8 12 18 21 29 20 5 5 11 13 2 4 5 7 10 4 10 8 2 9 16 19 23 29 33 36 39 39 39 36 37 34 33 35 37 33 27 22
24 23 25 30 33 31 36 33 20 8 8 9 0 6 8 14 11 14 14 29 21 17 13 8 7 5 9 10 8 5 6 13 4 2 7 8 10 15 21 28 30 29 30 30 28 29 28 30 29 30 30 25 20 15
20 28 28 29 29 21 11 7 8 8 7 10 10 13 14 19 15 16 18 17 16 17 21 9 7 6 7 4 6 10 12 6 2 4 6 6 10 14 17 20 22 23 24 24 23 25 24 20 20 24 23 19 17 16
10 15 16 44 34 9 8 9 8 13 5 9 11 11 13 12 17 18 15 14 13 12 6 4 7 6 7 12 10 7 6 4 1 3 10 7 8 11 17 21 22 22 22 21 19 21 22 19 19 20 19 18 15 17
9 20 29 54 27 13 13 7 12 11 15 11 18 6 9 10 8 6 7 9 2 5 1 5 11 15 10 6 5 6 7 6 4 4 6 11 12 16 20 20 21 24 29 32 33 33 31 31 27 23 21 20 19 19
15 19 16 20 12 10 16 16 14 14 10 13 12 8 7 2 1 1 4 5 1 2 3 8 13 8 7 8 7 7 6 8 8 9 12 13 12 12 17 21 22 27 31 34 35 36 35 33 29 26 24 24 21 20
13 9 9 9 9 10 7 7 7 7 7 3 6 6 4 5 4 1 1 3 3 8 12 11 11 12 12 11 12 14 15 15 14 14 11 8 7 8 10 14 19 21 23 27 28 29 30 30 29 27 25 22 20 20
12 9 14 13 18 5 5 11 8 9 8 6 5 3 3 4 2 4 4 5 7 17 15 15 18 20 19 19 20 20 20 19 15 11 7 4 3 6 10 13 14 20 23 23 22 22 23 24 24 24 25 24 23 23
7 20 14 12 14 10 10 9 10 8 5 3 7 3 4 3 3 1 5 4 20 23 21 22 23 20 21 23 20 17 14 11 7 5 2 3 6 9 11 13 14 13 16 17 18 20 21 21 22 22 22 22 21 21
15 16 10 2 8 7 2 6 3 5 5 3 2 4 3 5 3 7 5 6 16 29 28 28 29 26 24 20 16 11 7 4 5 8 8 10 12 14 12 11 11 13 15 18 20 21 23 24 25 26 25 24 24 23
10 8 11 14 4 6 8 9 6 6 5 4 3 2 5 3 6 6 1 8 11 18 21 22 21 19 14 13 10 7 5 5 7 8 11 13 14 12 11 10 9 9 13 17 21 24 27 28 28 29 29 28 32 32
8 12 6 13 10 9 8 3 3 3 4 2 3 2 10 11 7 2 3 13 16 22 25 25 23 21 17 14 9 7 7 8 10 10 10 10 9 9 8 7 9 11 15 19 23 26 30 33 36 36 36 37 35 35
9 11 8 8 6 8 2 4 4 2 4 4 6 4 6 7 6 2 2 15 22 26 25 25 24 21 18 14 11 10 10 10 12 13 13 12 10 9 10 13 16 21 26 27 27 32 35 38 41 46 45 45 42 40
10 15 5 3 3 2 2 2 2 3 5 7 8 9 11 11 11 15 16 19 26 27 24 23 23 22 18 18 16 16 13 15 17 19 19 15 15 17 19 22 25 28 33 35 35 33 33 38 40 42 44 44 43 42
10 7 3 3 2 1 1 5 11 13 10 7 14 13 14 14 9 6 14 19 23 27 30 30 29 25 23 20 17 17 18 18 19 19 21 26 28 28 28 29 31 33 35 36 37 39 41 44 45 47 47 46 44 44
9 5 3 3 4 3 6 7 4 3 4 5 5 6 7 8 8 1 2 14 22 25 22 22 21 15 14 17 20 21 19 19 20 23 27 30 30 30 31 32 32 34 38 41 44 47 50 53 55 55 56 55 51 48
5 4 4 4 3 3 8 12 5 7 5 4 3 4 4 5 8 1 1 1 6 10 14 16 16 16 16 14 12 11 13 13 16 19 24 29 33 36 39 41 43 46 51 55 57 59 60 62 64 65 63 61 59 56
Wind_Direction_500mb
258 260 259 257 256 257 255 258 260 255 262 249 254 254 251 245 245 240 244 242 233 243 255 244 249 236 240 221 166 217 347 270 52 175 153 229 202 218 189 243 179 152 148 231 52 160 271 9 353 62 237 301 287 277
256 252 255 255 254 259 255 255 257 255 261 255 253 256 252 249 242 239 242 244 246 238 256 260 253 255 244 247 257 243 224 194 210 110 268 50 292 352 168 244 198 267 206 215 192 215 305 310 297 293 298 287 259 277
260 260 253 252 250 254 253 251 253 258 264 260 264 258 250 250 245 240 238 243 238 240 254 254 251 259 251 248 248 235 242 236 243 246 206 215 230 151 241 236 254 243 239 216 40 261 267 271 281 286 290 277 270 291
257 257 258 258 256 256 256 253 252 256 257 256 259 258 252 252 249 243 238 238 234 234 253 257 257 241 257 245 243 243 249 251 254 243 229 210 221 204 234 240 220 230 134 228 258 268 271 274 273 281 286 277 286 292
259 260 259 258 257 256 256 256 250 250 252 258 264 256 248 252 253 247 242 243 236 221 250 281 278 268 256 247 243 245 247 247 235 230 220 239 221 230 218 236 246 228 241 248 255 265 266 275 281 291 286 287 286 289
262 263 261 259 256 254 254 255 252 249 251 253 257 259 254 255 254 243 246 238 235 236 251 225 267 256 251 250 258 247 249 242 223 232 238 241 237 204 219 235 259 255 246 247 255 268 273 272 278 287 292 291 292 296
264 262 259 257 254 250 252 252 248 249 249 251 256 261 258 251 241 225 221 235 226 222 228 245 262 242 237 240 247 247 246 230 230 240 236 243 236 219 238 252 257 252 255 259 265 263 268 276 274 285 294 297 299 300
263 260 259 254 251 248 249 246 246 245 246 244 249 258 258 256 249 241 232 237 230 192 208 216 248 255 193 187 209 215 210 215 220 229 236 234 235 220 246 246 254 265 266 255 256 271 271 283 293 296 301 305 305 305
258 256 257 255 250 244 247 246 243 239 242 243 248 255 259 244 238 233 244 243 226 197 203 194 163 224 187 204 200 184 194 210 216 214 227 215 223 225 229 263 268 266 266 278 288 294 295 295 302 307 308 309 308 308
260 262 263 249 242 240 240 242 234 234 238 239 237 227 232 234 238 231 210 208 204 212 220 195 175 184 187 182 220 164 191 218 223 229 202 213 237 215 234 233 233 266 282 297 310 309 307 305 311 308 310 314 310 310
262 257 252 245 236 238 245 236 234 229 232 225 201 210 220 204 186 194 204 194 188 218 214 192 198 201 226 143 215 205 210 198 211 240 169 188 271 165 204 207 251 270 288 301 300 298 299 300 307 311 310 310 312 315
263 258 255 253 245 247 241 237 230 223 216 217 207 194 188 196 200 198 188 189 199 201 202 167 213 208 194 192 164 197 210 199 235 112 102 245 236 137 167 223 264 280 291 294 297 302 304 303 305 305 307 312 317 317
261 263 251 241 240 240 241 239 224 218 218 213 187 182 185 194 211 191 181 188 208 189 179 183 194 185 175 197 219 214 221 203 122 89 215 220 107 130 359 308 297 304 307 309 309 308 308 309 311 313 313 317 317 318
253 252 252 242 235 236 236 234 224 210 198 195 191 186 194 185 222 182 175 175 192 177 174 165 137 166 187 189 212 224 189 116 148 203 229 167 129 335 331 325 322 317 317 315 316 316 316 315 314 315 317 318 317 319
254 250 244 237 235 233 229 223 214 209 207 201 185 203 191 170 119 162 160 139 150 157 144 131 155 191 188 226 218 194 196 222 196 219 204 180 308 324 322 320 320 319 319 317 318 317 316 316 316 317 323 320 319 315
256 248 237 230 229 229 221 214 213 217 216 220 197 137 85 67 299 156 158 142 149 151 145 135 149 195 231 224 203 216 148 218 232 178 174 286 315 325 323 322 320 318 315 316 317 317 317 319 320 318 319 323 316 316
249 239 231 227 223 210 206 208 207 202 199 158 128 147 127 119 153 158 150 162 157 154 189 182 171 209 31 215 229 194 208 185 171 178 236 310 316 325 321 321 323 322 321 321 322 325 324 323 320 323 322 324 322 323
226 230 222 209 208 212 211 201 192 132 77 58 284 150 127 104 122 144 146 153 156 179 158 191 109 157 197 190 248 196 176 178 237 240 326 317 330 330 327 327 331 331 330 331 329 326 331 332 329 330 330 334 338 343
206 218 212 189 194 196 143 109 120 102 92 110 127 115 107 105 108 128 142 163 163 144 136 110 98 200 226 171 175 166 172 183 184 338 355 11 351 345 344 346 350 347 343 339 340 343 338 336 342 346 347 353 4 9
262 263 217 192 195 145 92 52 77 86 92 122 96 85 86 102 121 115 132 151 151 143 101 158 210 163 131 145 142 155 173 198 260 36 124 76 46 30 23 17 14 13 14 16 16 11 11 17 18 16 14 16 23 24
95 110 129 154 137 86 92 72 64 83 117 90 117 86 82 118 122 157 171 160 147 43 272 163 138 140 141 166 184 177 195 215 209 174 135 102 74 54 49 40 37 36 36 31 32 32 30 27 25 27 29 35 37 36
120 112 88 71 81 77 69 46 101 106 83 110 103 98 85 47 228 120 71 48 103 141 137 155 165 177 178 175 171 177 181 168 155 138 119 106 85 65 46 38 36 37 36 33 32 31 31 31 33 35 41 43 43 47
123 113 74 70 98 67 73 76 93 50 93 106 101 69 22 5 35 58 16 252 221 192 174 169 166 159 155 152 151 151 143 133 129 126 123 108 74 38 15 15 19 22 28 29 25 26 29 31 34 37 39 41 42 43
108 58 33 39 36 76 58 34 59 75 96 59 76 76 301 217 81 43 243 255 190 174 172 168 166 161 156 148 143 137 132 130 134 134 128 107 29 355 355 357 355 5 8 8 6 8 13 18 22 26 29 29 29 29
99 12 18 10 25 50 42 20 2 48 71 354 77 335 270 201 77 321 232 248 179 180 177 175 175 174 163 152 148 142 139 140 146 155 155 348 347 349 347 344 347 348 355 2 4 7 8 8 7 6 5 5 6 7
66 6 41 322 350 82 195 85 69 164 143 86 213 284 19 84 78 247 233 191 191 190 188 183 176 173 173 168 169 176 192 222 274 287 281 286 296 305 313 331 345 352 2 9 11 11 8 6 4 3 360 356 353 349
61 341 21 29 40 81 61 43 78 80 75 144 238 49 74 88 258 256 236 177 169 179 174 172 171 170 174 185 191 202 238 281 301 318 313 305 302 296 291 309 332 351 3 3 0 360 360 358 356 353 350 348 342 340
73 26 71 344 42 42 124 88 78 135 212 191 120 124 163 189 237 336 200 176 163 170 174 177 182 187 190 195 213 245 273 297 315 310 320 321 314 312 298 305 319 326 329 332 334 336 336 336 336 335 336 336 336 331
42 6 354 12 17 41 88 135 201 147 142 173 143 242 250 242 235 260 246 194 183 180 188 193 195 199 206 219 232 255 282 299 310 317 317 323 327 316 316 313 314 315 314 316 318 320 321 323 324 323 324 323 322 321
10 3 23 34 66 353 338 85 91 166 223 250 278 284 274 269 271 248 231 212 206 200 195 198 207 215 225 237 246 260 282 295 298 301 301 308 308 309 307 303 302 302 301 305 310 312 312 313 314 313 312 311 312 310
347 346 10 44 215 42 338 295 286 275 261 264 254 257 276 300 305 254 221 208 206 208 211 215 221 230 239 251 269 281 278 283 290 294 293 295 298 302 303 300 298 296 297 300 304 308 311 313 315 315 314 313 312 309
343 38 102 12 306 320 317 335 296 277 250 254 252 265 287 293 286 305 228 216 220 222 225 229 235 246 262 260 260 274 290 294 298 298 298 302 305 306 303 299 295 292 293 295 298 301 303 307 311 313 312 310 309 307
320 339 347 327 348 15 350 343 17 335 257 265 255 283 281 276 252 91 124 126 178 188 202 217 224 229 242 264 279 285 294 306 308 309 311 309 308 307 302 298 294 291 291 292 294 296 298 300 303 305 304 303 302 300
Wind_Speed_850mb
54 53 52 52 54 55 51 53 52 50 45 65 56 55 55 56 55 52 61 54 52 35 54 37 34 45 21 21 8 5 7 7 5 4 7 8 8 8 1 2 8 7 5 6 3 1 18 12 21 3 12 39 38 17
64 58 60 61 55 57 56 58 53 49 50 57 56 56 65 58 60 57 62 58 53 54 27 23 40 61 61 59 50 27 21 13 18 4 2 4 4 3 7 7 8 5 13 10 16 12 17 62 55 63 39 40 36 32
66 66 63 65 63 60 62 62 60 59 53 60 58 56 62 63 58 59 66 59 49 52 56 57 60 79 75 67 59 38 35 39 43 44 11 7 12 6 9 12 15 13 36 9 3 23 33 44 53 64 66 47 42 46
66 69 70 69 66 63 64 64 56 51 56 57 61 60 56 58 58 57 64 65 61 28 10 24 33 52 37 40 58 77 85 60 48 42 21 9 9 18 10 14 16 17 9 14 20 32 44 62 57 56 46 44 52 54
69 70 73 72 69 69 67 66 62 58 54 51 55 52 55 56 55 57 64 71 65 56 6 10 27 34 40 38 49 54 63 65 47 22 9 15 12 11 7 8 21 25 34 23 29 55 39 41 62 50 40 44 50 50
70 72 71 70 70 68 68 66 64 63 58 53 51 55 55 55 52 51 38 70 71 66 21 7 22 43 49 77 61 67 64 64 43 23 16 23 32 20 8 9 27 46 58 72 52 73 62 67 52 47 41 41 44 52
68 71 69 69 67 67 64 62 60 57 56 51 47 49 52 53 51 62 17 12 27 63 27 6 7 28 44 51 57 60 55 38 37 28 22 30 24 20 8 26 37 47 59 54 51 49 42 45 26 36 42 53 62 72
62 60 61 64 65 64 62 62 60 55 51 49 48 48 47 48 47 60 73 52 29 55 21 6 8 3 23 16 13 23 21 27 27 27 22 14 13 16 16 19 44 48 46 35 32 27 28 39 43 43 48 57 68 77
56 57 59 61 64 58 57 56 56 52 51 45 43 41 41 50 52 46 48 51 58 37 11 11 10 7 19 17 16 13 19 7 16 11 12 14 10 13 15 24 22 17 10 20 24 29 32 36 46 53 58 63 71 83
54 58 55 58 60 59 54 52 52 51 49 44 39 28 16 35 38 33 25 26 51 37 26 6 19 5 24 23 10 9 15 7 6 10 10 10 16 13 9 11 11 12 17 22 27 26 40 49 53 61 65 67 65 81
49 47 45 43 41 43 47 50 53 47 41 44 27 21 16 15 34 23 17 15 13 6 12 18 34 7 25 6 11 18 6 7 8 9 11 3 6 8 15 13 11 13 18 22 26 32 38 47 58 68 77 78 81 83
49 51 51 53 48 50 52 53 52 54 57 39 22 24 24 24 16 12 9 7 10 13 9 9 19 31 15 20 8 14 7 8 8 7 7 5 8 9 7 6 9 14 20 25 30 39 43 49 54 63 72 77 77 77
48 48 47 45 47 48 48 52 55 56 52 44 30 22 18 15 12 14 16 5 3 4 17 16 6 13 14 19 7 7 11 10 10 5 8 8 10 7 2 8 13 21 27 34 40 44 50 56 58 59 68 68 67 67
47 47 43 43 42 41 38 44 50 52 46 25 13 14 12 8 9 8 10 11 13 16 33 25 8 7 11 7 6 7 4 7 4 7 12 2 5 5 10 18 27 32 37 43 48 52 57 59 62 58 55 55 55 57
40 42 45 45 41 42 41 39 39 50 22 17 14 12 12 11 5 8 18 19 13 22 27 9 3 12 6 7 6 4 7 7 10 11 4 8 7 15 20 24 30 37 44 50 52 54 56 55 55 57 48 45 44 47
35 36 40 36 37 40 44 43 46 51 17 12 9 7 6 8 4 13 14 13 23 26 16 6 4 4 8 5 8 9 7 11 8 5 6 7 13 18 24 28 33 39 44 48 48 47 47 45 44 45 42 39 37 34
30 39 37 35 35 33 33 39 35 23 14 14 5 8 7 10 8 12 18 21 29 20 5 5 11 13 2 4 5 7 10 4 10 8 2 9 16 19 23 29 33 36 39 39 39 36 37 34 33 35 37 33 27 22
24 23 25 30 33 31 36 33 20 8 8 9 0 6 8 14 11 14 14 29 21 17 13 8 7 5 9 10 8 5 6 13 4 2 7 8 10 15 21 28 30 29 30 30 28 29 28 30 29 30 30 25 20 15
20 28 28 29 29 21 11 7 8 8 7 10 10 13 14 19 15 16 18 17 16 17 21 9 7 6 7 4 6 10 12 6 2 4 6 6 10 14 17 20 22 23 24 24 23 25 24 20 20 24 23 19 17 16
10 15 16 44 34 9 8 9 8 13 5 9 11 11 13 12 17 18 15 14 13 12 6 4 7 6 7 12 10 7 6 4 1 3 10 7 8 11 17 21 22 22 22 21 19 21 22 19 19 20 19 18 15 17
9 20 29 54 27 13 13 7 12 11 15 11 18 6 9 10 8 6 7 9 2 5 1 5 11 15 10 6 5 6 7 6 4 4 6 11 12 16 20 20 21 24 29 32 33 33 31 31 27 23 21 20 19 19
15 19 16 20 12 10 16 16 14 14 10 13 12 8 7 2 1 1 4 5 1 2 3 8 13 8 7 8 7 7 6 8 8 9 12 13 12 12 17 21 22 27 31 34 35 36 35 33 29 26 24 24 21 20
13 9 9 9 9 10 7 7 7 7 7 3 6 6 4 5 4 1 1 3 3 8 12 11 11 12 12 11 12 14 15 15 14 14 11 8 7 8 10 14 19 21 23 27 28 29 30 30 29 27 25 22 20 20
12 9 14 13 18 5 5 11 8 9 8 6 5 3 3 4 2 4 4 5 7 17 15 15 18 20 19 19 20 20 20 19 15 11 7 4 3 6 10 13 14 20 23 23 22 22 23 24 24 24 25 24 23 23
7 20 14 12 14 10 10 9 10 8 5 3 7 3 4 3 3 1 5 4 20 23 21 22 23 20 21 23 20 17 14 11 7 5 2 3 6 9 11 13 14 13 16 17 18 20 21 21 22 22 22 22 21 21
15 16 10 2 8 7 2 6 3 5 5 3 2 4 3 5 3 7 5 6 16 29 28 28 29 26 24 20 16 11 7 4 5 8 8 10 12 14 12 11 11 13 15 18 20 21 23 24 25 26 25 24 24 23
10 8 11 14 4 6 8 9 6 6 5 4 3 2 5 3 6 6 1 8 11 18 21 22 21 19 14 13 10 7 5 5 7 8 11 13 14 12 11 10 9 9 13 17 21 24 27 28 28 29 29 28 32 32
8 12 6 13 10 9 8 3 3 3 4 2 3 2 10 11 7 2 3 13 16 22 25 25 23 21 17 14 9 7 7 8 10 10 10 10 9 9 8 7 9 11 15 19 23 26 30 33 36 36 36 37 35 35
9 11 8 8 6 8 2 4 4 2 4 4 6 4 6 7 6 2 2 15 22 26 25 25 24 21 18 14 11 10 10 10 12 13 13 12 10 9 10 13 16 21 26 27 27 32 35 38 41 46 45 45 42 40
10 15 5 3 3 2 2 2 2 3 5 7 8 9 11 11 11 15 16 19 26 27 24 23 23 22 18 18 16 16 13 15 17 19 19 15 15 17 19 22 25 28 33 35 35 33 33 38 40 42 44 44 43 42
10 7 3 3 2 1 1 5 11 13 10 7 14 13 14 14 9 6 14 19 23 27 30 30 29 25 23 20 17 17 18 18 19 19 21 26 28 28 28 29 31 33 35 36 37 39 41 44 45 47 47 46 44 44
9 5 3 3 4 3 6 7 4 3 4 5 5 6 7 8 8 1 2 14 22 25 22 22 21 15 14 17 20 21 19 19 20 23 27 30 30 30 31 32 32 34 38 41 44 47 50 53 55 55 56 55 51 48
5 4 4 4 3 3 8 12 5 7 5 4 3 4 4 5 8 1 1 1 6 10 14 16 16 16 16 14 12 11 13 13 16 19 24 29 33 36 39 41 43 46 51 55 57 59 60 62 64 65 63 61 59 56
Wind_Direction_850mb
258 260 259 257 256 257 255 258 260 255 262 249 254 254 251 245 245 240 244 242 233 243 255 244 249 236 240 221 166 217 347 270 52 175 153 229 202 218 189 243 179 152 148 231 52 160 271 9 353 62 237 301 287 277
256 252 255 255 254 259 255 255 257 255 261 255 253 256 252 249 242 239 242 244 246 238 256 260 253 255 244 247 257 243 224 194 210 110 268 50 292 352 168 244 198 267 206 215 192 215 305 310 297 293 298 287 259 277
260 260 253 252 250 254 253 251 253 258 264 260 264 258 250 250 245 240 238 243 238 240 254 254 251 259 251 248 248 235 242 236 243 246 206 215 230 151 241 236 254 243 239 216 40 261 267 271 281 286 290 277 270 291
257 257 258 258 256 256 256 253 252 256 257 256 259 258 252 252 249 243 238 238 234 234 253 257 257 241 257 245 243 243 249 251 254 243 229 210 221 204 234 240 220 230 134 228 258 268 271 274 273 281 286 277 286 292
259 260 259 258 257 256 256 256 250 250 252 258 264 256 248 252 253 247 242 243 236 221 250 281 278 268 256 247 243 245 247 247 235 230 220 239 221 230 218 236 246 228 241 248 255 265 266 275 281 291 286 287 286 289
262 263 261 259 256 254 254 255 252 249 251 253 257 259 254 255 254 243 246 238 235 236 251 225 267 256 251 250 258 247 249 242 223 232 238 241 237 204 219 235 259 255 246 247 255 268 273 272 278 287 292 291 292 296
264 262 259 257 254 250 252 252 248 249 249 251 256 261 258 251 241 225 221 235 226 222 228 245 262 242 237 240 247 247 246 230 230 240 236 243 236 219 238 252 257 252 255 259 265 263 268 276 274 285 294 297 299 300
263 260 259 254 251 248 249 246 246 245 246 244 249 258 258 256 249 241 232 237 230 192 208 216 248 255 193 187 209 215 210 215 220 229 236 234 235 220 246 246 254 265 266 255 256 271 271 283 293 296 301 305 305 305
258 256 257 255 250 244 247 246 243 239 242 243 248 255 259 244 238 233 244 243 226 197 203 194 163 224 187 204 200 184 194 210 216 214 227 215 223 225 229 263 268 266 266 278 288 294 295 295 302 307 308 309 308 308
260 262 263 249 242 240 240 242 234 234 238 239 237 227 232 234 238 231 210 208 204 212 220 195 175 184 187 182 220 164 191 218 223 229 202 213 237 215 234 233 233 266 282 297 310 309 307 305 311 308 310 314 310 310
262 257 252 245 236 238 245 236 234 229 232 225 201 210 220 204 186 194 204 194 188 218 214 192 198 201 226 143 215 205 210 198 211 240 169 188 271 165 204 207 251 270 288 301 300 298 299 300 307 311 310 310 312 315
263 258 255 253 245 247 241 237 230 223 216 217 207 194 188 196 200 198 188 189 199 201 202 167 213 208 194 192 164 197 210 199 235 112 102 245 236 137 167 223 264 280 291 294 297 302 304 303 305 305 307 312 317 317
261 263 251 241 240 240 241 239 224 218 218 213 187 182 185 194 211 191 181 188 208 189 179 183 194 185 175 197 219 214 221 203 122 89 215 220 107 130 359 308 297 304 307 309 309 308 308 309 311 313 313 317 317 318
253 252 252 242 235 236 236 234 224 210 198 195 191 186 194 185 222 182 175 175 192 177 174 165 137 166 187 189 212 224 189 116 148 203 229 167 129 335 331 325 322 317 317 315 316 316 316 315 314 315 317 318 317 319
254 250 244 237 235 233 229 223 214 209 207 201 185 203 191 170 119 162 160 139 150 157 144 131 155 191 188 226 218 194 196 222 196 219 204 180 308 324 322 320 320 319 319 317 318 317 316 316 316 317 323 320 319 315
256 248 237 230 229 229 221 214 213 217 216 220 197 137 85 67 299 156 158 142 149 151 145 135 149 195 231 224 203 216 148 218 232 178 174 286 315 325 323 322 320 318 315 316 317 317 317 319 320 318 319 323 316 316
249 239 231 227 223 210 206 208 207 202 199 158 128 147 127 119 153 158 150 162 157 154 189 182 171 209 31 215 229 194 208 185 171 178 236 310 316 325 321 321 323 322 321 321 322 325 324 323 320 323 322 324 322 323
226 230 222 209 208 212 211 201 192 132 77 58 284 150 127 104 122 144 146 153 156 179 158 191 109 157 197 190 248 196 176 178 237 240 326 317 330 330 327 327 331 331 330 331 329 326 331 332 329 330 330 334 338 343
206 218 212 189 194 196 143 109 120 102 92 110 127 115 107 105 108 128 142 163 163 144 136 110 98 200 226 171 175 166 172 183 184 338 355 11 351 345 344 346 350 347 343 339 340 343 338 336 342 346 347 353 4 9
262 263 217 192 195 145 92 52 77 86 92 122 96 85 86 102 121 115 132 151 151 143 101 158 210 163 131 145 142 155 173 198 260 36 124 76 46 30 23 17 14 13 14 16 16 11 11 17 18 16 14 16 23 24
95 110 129 154 137 86 92 72 64 83 117 90 117 86 82 118 122 157 171 160 147 43 272 163 138 140 141 166 184 177 195 215 209 174 135 102 74 54 49 40 37 36 36 31 32 32 30 27 25 27 29 35 37 36
120 112 88 71 81 77 69 46 101 106 83 110 103 98 85 47 228 120 71 48 103 141 137 155 165 177 178 175 171 177 181 168 155 138 119 106 85 65 46 38 36 37 36 33 32 31 31 31 33 35 41 43 43 47
123 113 74 70 98 67 73 76 93 50 93 106 101 69 22 5 35 58 16 252 221 192 174 169 166 159 155 152 151 151 143 133 129 126 123 108 74 38 15 15 19 22 28 29 25 26 29 31 34 37 39 41 42 43
108 58 33 39 36 76 58 34 59 75 96 59 76 76 301 217 81 43 243 255 190 174 172 168 166 161 156 148 143 137 132 130 134 134 128 107 29 355 355 357 355 5 8 8 6 8 13 18 22 26 29 29 29 29
99 12 18 10 25 50 42 20 2 48 71 354 77 335 270 201 77 321 232 248 179 180 177 175 175 174 163 152 148 142 139 140 146 155 155 348 347 349 347 344 347 348 355 2 4 7 8 8 7 6 5 5 6 7
66 6 41 322 350 82 195 85 69 164 143 86 213 284 19 84 78 247 233 191 191 190 188 183 176 173 173 168 169 176 192 222 274 287 281 286 296 305 313 331 345 352 2 9 11 11 8 6 4 3 360 356 353 349
61 341 21 29 40 81 61 43 78 80 75 144 238 49 74 88 258 256 236 177 169 179 174 172 171 170 174 185 191 202 238 281 301 318 313 305 302 296 291 309 332 351 3 3 0 360 360 358 356 353 350 348 342 340
73 26 71 344 42 42 124 88 78 135 212 191 120 124 163 189 237 336 200 176 163 170 174 177 182 187 190 195 213 245 273 297 315 310 320 321 314 312 298 305 319 326 329 332 334 336 336 336 336 335 336 336 336 331
42 6 354 12 17 41 88 135 201 147 142 173 143 242 250 242 235 260 246 194 183 180 188 193 195 199 206 219 232 255 282 299 310 317 317 323 327 316 316 313 314 315 314 316 318 320 321 323 324 323 324 323 322 321
10 3 23 34 66 353 338 85 91 166 223 250 278 284 274 269 271 248 231 212 206 200 195 198 207 215 225 237 246 260 282 295 298 301 301 308 308 309 307 303 302 302 301 305 310 312 312 313 314 313 312 311 312 310
347 346 10 44 215 42 338 295 286 275 261 264 254 257 276 300 305 254 221 208 206 208 211 215 221 230 239 251 269 281 278 283 290 294 293 295 298 302 303 300 298 296 297 300 304 308 311 313 315 315 314 313 312 309
343 38 102 12 306 320 317 335 296 277 250 254 252 265 287 293 286 305 228 216 220 222 225 229 235 246 262 260 260 274 290 294 298 298 298 302 305 306 303 299 295 292 293 295 298 301 303 307 311 313 312 310 309 307
320 339 347 327 348 15 350 343 17 335 257 265 255 283 281 276 252 91 124 126 178 188 202 217 224 229 242 264 279 285 294 306 308 309 311 309 308 307 302 298 294 291 291 292 294 296 298 300 303 305 304 303 302 300